Change the Weather History Date:

Wednesday, December 12, 2012

  Actual Average Record
Temperature  
Mean Temperature 53 °F -  
Max Temperature 68 °F 68 °F 79 °F (1950)
Min Temperature 38 °F 36 °F 23 °F (1972)
Degree Days  
Heating Degree Days 12    
Growing Degree Days 3 (Base 50)    
Moisture  
Dew Point 23 °F    
Average Humidity 37    
Maximum Humidity 57    
Minimum Humidity 14    
Precipitation  
Precipitation 0.00 in - - ()
Sea Level Pressure  
Sea Level Pressure 29.95 in    
Wind  
Wind Speed 6 mph (North)    
Max Wind Speed 10 mph    
Max Gust Speed -    
Visibility 10 miles    
Events      
Averages and records for this station are not official NWS values.
T = Trace of Precipitation, MM = Missing Value Source: NWS Daily Summary

Daily Weather History Graph

Daily Weather History Graph

Search for Another Location

Airport or City:

Trip Planner

Search our weather history database for the weather conditions in past years. The results will help you decide how hot, cold, wet, or windy it might be!

Date:

Astronomy

Dec. 12, 2012 Rise Set
Actual Time 7:24 AM MST 5:22 PM MST
Civil Twilight 6:57 AM MST 5:49 PM MST
Nautical Twilight 6:26 AM MST 6:20 PM MST
Astronomical Twilight 5:55 AM MST 6:51 PM MST
Moon 6:34 AM MST (12/12) 5:02 PM MST (12/12)
Length of Visible Light 10h 52m
Length of Day
9h 57m
Waning Crescent, 0% of the Moon is Illuminated
Dec 12
Waning Crescent
Dec 13
New
Dec 19
First Quarter
Dec 28
Full
Jan 4
Last Quarter

Hourly Weather History & Observations

Time (MST) Temp. Windchill Dew Point Humidity Pressure Visibility Wind Dir Wind Speed Gust Speed Precip Events Conditions
12:58 AM 42.4 °F 38.8 °F 19.4 °F 40% 30.01 in 10.0 mi North 5.8 mph - N/A   Clear
1:58 AM 41.2 °F 36.6 °F 18.9 °F 41% 30.00 in 10.0 mi North 6.9 mph - N/A   Clear
2:58 AM 39.0 °F 32.3 °F 24.4 °F 56% 30.00 in 10.0 mi NNW 10.4 mph - N/A   Clear
3:58 AM 39.2 °F 33.6 °F 25.2 °F 57% 29.99 in 10.0 mi NNW 8.1 mph - N/A   Clear
4:58 AM 38.7 °F 36.3 °F 23.0 °F 53% 29.99 in 10.0 mi NE 3.5 mph - N/A   Clear
5:58 AM 38.8 °F 33.2 °F 22.8 °F 53% 29.99 in 10.0 mi NNW 8.1 mph - N/A   Clear
6:58 AM 38.3 °F 33.9 °F 22.5 °F 53% 30.01 in 10.0 mi North 5.8 mph - N/A   Clear
7:58 AM 38.1 °F 33.7 °F 23.7 °F 56% 30.02 in 10.0 mi North 5.8 mph - N/A   Clear
8:58 AM 45.3 °F 42.3 °F 25.2 °F 45% 30.02 in 10.0 mi NNW 5.8 mph - N/A   Clear
9:58 AM 53.4 °F - 22.8 °F 30% 30.04 in 10.0 mi NNW 2.3 mph - N/A   Clear
10:58 AM 56.8 °F - 20.7 °F 25% 30.03 in 10.0 mi NNE 2.3 mph - N/A   Mostly Cloudy
11:58 AM 60.1 °F - 20.3 °F 22% 30.01 in 10.0 mi NNE 3.5 mph - N/A   Clear
12:58 PM 64.2 °F - 20.1 °F 18% 29.97 in 10.0 mi ESE 4.6 mph - N/A   Clear
1:58 PM 66.7 °F - 16.3 °F 14% 29.94 in 10.0 mi East 5.8 mph - N/A   Mostly Cloudy
2:58 PM 68.2 °F - 17.6 °F 14% 29.91 in 10.0 mi SE 3.5 mph - N/A   Clear
3:58 PM 68.7 °F - 17.2 °F 14% 29.89 in 10.0 mi NNE 4.6 mph - N/A   Clear
4:58 PM 67.8 °F - 18.9 °F 15% 29.88 in 10.0 mi ENE 4.6 mph - N/A   Clear
5:58 PM 59.9 °F - 28.2 °F 30% 29.88 in 10.0 mi NNW 5.8 mph - N/A   Clear
6:58 PM 53.6 °F - 27.9 °F 37% 29.88 in 10.0 mi NW 6.9 mph - N/A   Clear
7:58 PM 51.1 °F - 28.6 °F 42% 29.88 in 10.0 mi NW 5.8 mph - N/A   Clear
8:58 PM 49.5 °F - 27.1 °F 42% 29.88 in 10.0 mi NNW 8.1 mph - N/A   Clear
9:58 PM 48.9 °F - 22.8 °F 36% 29.88 in 10.0 mi Variable 5.8 mph - N/A   Clear
10:58 PM 46.8 °F - 26.8 °F 46% 29.89 in 10.0 mi North 5.8 mph - N/A   Clear
11:58 PM 45.7 °F - 25.3 °F 45% 29.90 in 10.0 mi NNE 2.3 mph - N/A   Clear